<?xml version="1.0" encoding="UTF-8" standalone="no" ?>
<gpx xmlns="http://www.topografix.com/GPX/1/1" xmlns:xsi="http://www.w3.org/2001/XMLSchema-instance" xsi:schemaLocation="http://www.topografix.com/GPX/1/1 http://www.topografix.com/GPX/1/1/gpx.xsd" version="1.1" creator="VisuGPX - https://www.visugpx.com">
  <metadata>
    <name>etape 25-miranbeau-braud et st louis</name>
  </metadata>
  <trk>
    <name><![CDATA[etape 26 Miranbeau - Blaye]]></name>
    <extensions>
      <line xmlns="http://www.topografix.com/GPX/gpx_style/0/2">
        <color>0000FF</color>
        <width>4</width>
      </line>
    </extensions>
    <trkseg>
      <trkpt lat="45.37816" lon="-0.56878">
        <ele>62</ele>
      </trkpt>
      <trkpt lat="45.3782" lon="-0.56921">
        <ele>60.9</ele>
      </trkpt>
      <trkpt lat="45.37784" lon="-0.56935">
        <ele>60.6</ele>
      </trkpt>
      <trkpt lat="45.37606" lon="-0.5699">
        <ele>61.2</ele>
      </trkpt>
      <trkpt lat="45.37536" lon="-0.57007">
        <ele>62.4</ele>
      </trkpt>
      <trkpt lat="45.37447" lon="-0.57029">
        <ele>63</ele>
      </trkpt>
      <trkpt lat="45.37296" lon="-0.57097">
        <ele>59.9</ele>
        <time>2012-01-12T07:09:26Z</time>
      </trkpt>
      <trkpt lat="45.37296" lon="-0.57097">
        <ele>59.9</ele>
        <time>2012-01-12T07:09:26Z</time>
      </trkpt>
      <trkpt lat="45.3721" lon="-0.57097">
        <ele>63.9</ele>
        <time>2012-01-12T07:09:26Z</time>
      </trkpt>
      <trkpt lat="45.37129" lon="-0.57134">
        <ele>67.9</ele>
        <time>2012-01-12T07:09:26Z</time>
      </trkpt>
      <trkpt lat="45.37031" lon="-0.57165">
        <ele>59.7</ele>
        <time>2012-01-12T07:09:26Z</time>
      </trkpt>
      <trkpt lat="45.36877" lon="-0.5708">
        <ele>48.7</ele>
        <time>2012-01-12T07:09:26Z</time>
      </trkpt>
      <trkpt lat="45.36802" lon="-0.57055">
        <ele>42.4</ele>
        <time>2012-01-12T07:09:26Z</time>
      </trkpt>
      <trkpt lat="45.36666" lon="-0.57002">
        <ele>39.4</ele>
        <time>2012-01-12T07:09:26Z</time>
      </trkpt>
      <trkpt lat="45.36522" lon="-0.56953">
        <ele>42.1</ele>
        <time>2012-01-12T07:09:26Z</time>
      </trkpt>
      <trkpt lat="45.36416" lon="-0.56881">
        <ele>44.9</ele>
        <time>2012-01-12T07:09:26Z</time>
      </trkpt>
      <trkpt lat="45.36289" lon="-0.5689">
        <ele>49.1</ele>
        <time>2012-01-12T07:09:26Z</time>
      </trkpt>
      <trkpt lat="45.36289" lon="-0.5689">
        <ele>49.1</ele>
        <time>2012-01-12T07:09:26Z</time>
      </trkpt>
      <trkpt lat="45.36248" lon="-0.568">
        <ele>51.4</ele>
        <time>2012-01-12T07:09:26Z</time>
      </trkpt>
      <trkpt lat="45.36115" lon="-0.56752">
        <ele>54.7</ele>
        <time>2012-01-12T07:09:26Z</time>
      </trkpt>
      <trkpt lat="45.36051" lon="-0.56708">
        <ele>54.7</ele>
        <time>2012-01-12T07:09:26Z</time>
      </trkpt>
      <trkpt lat="45.35991" lon="-0.56679">
        <ele>59.8</ele>
        <time>2012-01-12T07:09:26Z</time>
      </trkpt>
      <trkpt lat="45.35887" lon="-0.56643">
        <ele>70.5</ele>
        <time>2012-01-12T07:09:26Z</time>
      </trkpt>
      <trkpt lat="45.35786" lon="-0.56622">
        <ele>76.9</ele>
        <time>2012-01-12T07:09:26Z</time>
      </trkpt>
      <trkpt lat="45.35733" lon="-0.56578">
        <ele>84.7</ele>
        <time>2012-01-12T07:09:26Z</time>
      </trkpt>
      <trkpt lat="45.35664" lon="-0.56565">
        <ele>88.3</ele>
        <time>2012-01-12T07:09:26Z</time>
      </trkpt>
      <trkpt lat="45.35581" lon="-0.5656">
        <ele>86.8</ele>
        <time>2012-01-12T07:09:26Z</time>
      </trkpt>
      <trkpt lat="45.35521" lon="-0.56521">
        <ele>85.8</ele>
        <time>2012-01-12T07:09:26Z</time>
      </trkpt>
      <trkpt lat="45.35374" lon="-0.56478">
        <ele>92.3</ele>
        <time>2012-01-12T07:09:26Z</time>
      </trkpt>
      <trkpt lat="45.35279" lon="-0.56509">
        <ele>88</ele>
        <time>2012-01-12T07:09:26Z</time>
      </trkpt>
      <trkpt lat="45.35197" lon="-0.56448">
        <ele>85.4</ele>
        <time>2012-01-12T07:09:26Z</time>
      </trkpt>
      <trkpt lat="45.35119" lon="-0.56387">
        <ele>91.7</ele>
        <time>2012-01-12T07:09:26Z</time>
      </trkpt>
      <trkpt lat="45.35021" lon="-0.56398">
        <ele>90.4</ele>
        <time>2012-01-12T07:09:26Z</time>
      </trkpt>
      <trkpt lat="45.34956" lon="-0.56399">
        <ele>87.6</ele>
        <time>2012-01-12T07:09:26Z</time>
      </trkpt>
      <trkpt lat="45.3482" lon="-0.56356">
        <ele>81.5</ele>
        <time>2012-01-12T07:09:26Z</time>
      </trkpt>
      <trkpt lat="45.34676" lon="-0.56328">
        <ele>73.7</ele>
        <time>2012-01-12T07:09:26Z</time>
      </trkpt>
      <trkpt lat="45.34589" lon="-0.56334">
        <ele>72.8</ele>
        <time>2012-01-12T07:09:26Z</time>
      </trkpt>
      <trkpt lat="45.34513" lon="-0.56325">
        <ele>74.8</ele>
        <time>2012-01-12T07:09:26Z</time>
      </trkpt>
      <trkpt lat="45.34373" lon="-0.56302">
        <ele>79.3</ele>
        <time>2012-01-12T07:09:26Z</time>
      </trkpt>
      <trkpt lat="45.34275" lon="-0.56307">
        <ele>79.3</ele>
        <time>2012-01-12T07:09:26Z</time>
      </trkpt>
      <trkpt lat="45.34193" lon="-0.5638">
        <ele>77.1</ele>
        <time>2012-01-12T07:09:26Z</time>
      </trkpt>
      <trkpt lat="45.33792" lon="-0.56198">
        <ele>47.3</ele>
      </trkpt>
      <trkpt lat="45.33756" lon="-0.56206">
        <ele>46.2</ele>
      </trkpt>
      <trkpt lat="45.3369" lon="-0.56108">
        <ele>47.7</ele>
      </trkpt>
      <trkpt lat="45.33621" lon="-0.56073">
        <ele>51.2</ele>
      </trkpt>
      <trkpt lat="45.3358" lon="-0.56065">
        <ele>53.1</ele>
      </trkpt>
      <trkpt lat="45.33549" lon="-0.56165">
        <ele>51.9</ele>
      </trkpt>
      <trkpt lat="45.33529" lon="-0.56215">
        <ele>50.3</ele>
      </trkpt>
      <trkpt lat="45.33507" lon="-0.56231">
        <ele>50.5</ele>
      </trkpt>
      <trkpt lat="45.33468" lon="-0.56235">
        <ele>51.6</ele>
      </trkpt>
      <trkpt lat="45.33402" lon="-0.56255">
        <ele>53.9</ele>
      </trkpt>
      <trkpt lat="45.333" lon="-0.56253">
        <ele>58</ele>
      </trkpt>
      <trkpt lat="45.33257" lon="-0.56254">
        <ele>58</ele>
      </trkpt>
      <trkpt lat="45.33142" lon="-0.56318">
        <ele>57.5</ele>
      </trkpt>
      <trkpt lat="45.33075" lon="-0.56365">
        <ele>56.1</ele>
      </trkpt>
      <trkpt lat="45.32982" lon="-0.56382">
        <ele>52.1</ele>
      </trkpt>
      <trkpt lat="45.32979" lon="-0.5638">
        <ele>52.3</ele>
      </trkpt>
      <trkpt lat="45.32978" lon="-0.56383">
        <ele>52.1</ele>
        <time>2012-01-12T07:09:26Z</time>
      </trkpt>
      <trkpt lat="45.32898" lon="-0.56409">
        <ele>55.2</ele>
        <time>2012-01-12T07:09:26Z</time>
      </trkpt>
      <trkpt lat="45.32825" lon="-0.56431">
        <ele>55.7</ele>
        <time>2012-01-12T07:09:26Z</time>
      </trkpt>
      <trkpt lat="45.32765" lon="-0.56495">
        <ele>52.5</ele>
        <time>2012-01-12T07:09:26Z</time>
      </trkpt>
      <trkpt lat="45.32705" lon="-0.56569">
        <ele>50.4</ele>
        <time>2012-01-12T07:09:26Z</time>
      </trkpt>
      <trkpt lat="45.32688" lon="-0.56681">
        <ele>48.1</ele>
        <time>2012-01-12T07:09:26Z</time>
      </trkpt>
      <trkpt lat="45.32686" lon="-0.56768">
        <ele>47.4</ele>
        <time>2012-01-12T07:09:26Z</time>
      </trkpt>
      <trkpt lat="45.32663" lon="-0.56931">
        <ele>46.3</ele>
        <time>2012-01-12T07:09:26Z</time>
      </trkpt>
      <trkpt lat="45.32669" lon="-0.57003">
        <ele>42.8</ele>
        <time>2012-01-12T07:09:26Z</time>
      </trkpt>
      <trkpt lat="45.32685" lon="-0.5706">
        <ele>40.2</ele>
        <time>2012-01-12T07:09:26Z</time>
      </trkpt>
      <trkpt lat="45.32645" lon="-0.57089">
        <ele>40.8</ele>
        <time>2012-01-12T07:09:26Z</time>
      </trkpt>
      <trkpt lat="45.32601" lon="-0.57107">
        <ele>41</ele>
        <time>2012-01-12T07:09:26Z</time>
      </trkpt>
      <trkpt lat="45.32569" lon="-0.57074">
        <ele>41.3</ele>
        <time>2012-01-12T07:09:26Z</time>
      </trkpt>
      <trkpt lat="45.32569" lon="-0.57074">
        <ele>41.3</ele>
        <time>2012-01-12T07:09:26Z</time>
      </trkpt>
      <trkpt lat="45.32491" lon="-0.57024">
        <ele>43.4</ele>
        <time>2012-01-12T07:09:26Z</time>
      </trkpt>
      <trkpt lat="45.32408" lon="-0.57009">
        <ele>40.5</ele>
        <time>2012-01-12T07:09:26Z</time>
      </trkpt>
      <trkpt lat="45.32354" lon="-0.56873">
        <ele>41.8</ele>
        <time>2012-01-12T07:09:26Z</time>
      </trkpt>
      <trkpt lat="45.32324" lon="-0.56779">
        <ele>45.6</ele>
        <time>2012-01-12T07:09:26Z</time>
      </trkpt>
      <trkpt lat="45.32263" lon="-0.56745">
        <ele>47.5</ele>
        <time>2012-01-12T07:09:26Z</time>
      </trkpt>
      <trkpt lat="45.32202" lon="-0.56706">
        <ele>49.6</ele>
        <time>2012-01-12T07:09:26Z</time>
      </trkpt>
      <trkpt lat="45.32147" lon="-0.56627">
        <ele>56.2</ele>
        <time>2012-01-12T07:09:26Z</time>
      </trkpt>
      <trkpt lat="45.3209" lon="-0.56588">
        <ele>59</ele>
        <time>2012-01-12T07:09:26Z</time>
      </trkpt>
      <trkpt lat="45.32063" lon="-0.56494">
        <ele>60.9</ele>
        <time>2012-01-12T07:09:26Z</time>
      </trkpt>
      <trkpt lat="45.32032" lon="-0.56436">
        <ele>62.2</ele>
        <time>2012-01-12T07:09:26Z</time>
      </trkpt>
      <trkpt lat="45.31985" lon="-0.56454">
        <ele>60.1</ele>
        <time>2012-01-12T07:09:26Z</time>
      </trkpt>
      <trkpt lat="45.31907" lon="-0.56404">
        <ele>59.5</ele>
        <time>2012-01-12T07:09:26Z</time>
      </trkpt>
      <trkpt lat="45.31794" lon="-0.56408">
        <ele>57.3</ele>
        <time>2012-01-12T07:09:26Z</time>
      </trkpt>
      <trkpt lat="45.31725" lon="-0.56425">
        <ele>56.9</ele>
        <time>2012-01-12T07:09:26Z</time>
      </trkpt>
      <trkpt lat="45.31653" lon="-0.56431">
        <ele>56.1</ele>
        <time>2012-01-12T07:09:26Z</time>
      </trkpt>
      <trkpt lat="45.31581" lon="-0.56412">
        <ele>58.6</ele>
        <time>2012-01-12T07:09:26Z</time>
      </trkpt>
      <trkpt lat="45.31515" lon="-0.56434">
        <ele>60.5</ele>
        <time>2012-01-12T07:09:26Z</time>
      </trkpt>
      <trkpt lat="45.31515" lon="-0.56434">
        <ele>60.5</ele>
        <time>2012-01-12T07:09:26Z</time>
      </trkpt>
      <trkpt lat="45.31495" lon="-0.56387">
        <ele>62.8</ele>
        <time>2012-01-12T07:09:26Z</time>
      </trkpt>
      <trkpt lat="45.31458" lon="-0.56406">
        <ele>63.7</ele>
        <time>2012-01-12T07:09:26Z</time>
      </trkpt>
      <trkpt lat="45.31378" lon="-0.56422">
        <ele>67.8</ele>
        <time>2012-01-12T07:09:26Z</time>
      </trkpt>
      <trkpt lat="45.31309" lon="-0.56444">
        <ele>67.1</ele>
        <time>2012-01-12T07:09:26Z</time>
      </trkpt>
      <trkpt lat="45.31229" lon="-0.56461">
        <ele>64.7</ele>
        <time>2012-01-12T07:09:26Z</time>
      </trkpt>
      <trkpt lat="45.3116" lon="-0.56442">
        <ele>61.8</ele>
        <time>2012-01-12T07:09:26Z</time>
      </trkpt>
      <trkpt lat="45.31085" lon="-0.56407">
        <ele>58.7</ele>
        <time>2012-01-12T07:09:26Z</time>
      </trkpt>
      <trkpt lat="45.31024" lon="-0.56399">
        <ele>57.2</ele>
        <time>2012-01-12T07:09:26Z</time>
      </trkpt>
      <trkpt lat="45.3095" lon="-0.56456">
        <ele>56.9</ele>
        <time>2012-01-12T07:09:26Z</time>
      </trkpt>
      <trkpt lat="45.30903" lon="-0.56454">
        <ele>56.9</ele>
        <time>2012-01-12T07:09:26Z</time>
      </trkpt>
      <trkpt lat="45.30837" lon="-0.56368">
        <ele>55.9</ele>
        <time>2012-01-12T07:09:26Z</time>
      </trkpt>
      <trkpt lat="45.30776" lon="-0.5635">
        <ele>53.8</ele>
        <time>2012-01-12T07:09:26Z</time>
      </trkpt>
      <trkpt lat="45.30719" lon="-0.56295">
        <ele>50.5</ele>
        <time>2012-01-12T07:09:26Z</time>
      </trkpt>
      <trkpt lat="45.30637" lon="-0.56276">
        <ele>49.7</ele>
        <time>2012-01-12T07:09:26Z</time>
      </trkpt>
      <trkpt lat="45.30551" lon="-0.5623">
        <ele>43.4</ele>
        <time>2012-01-12T07:09:26Z</time>
      </trkpt>
      <trkpt lat="45.30472" lon="-0.56195">
        <ele>38.4</ele>
        <time>2012-01-12T07:09:26Z</time>
      </trkpt>
      <trkpt lat="45.30472" lon="-0.56195">
        <ele>38.4</ele>
        <time>2012-01-12T07:09:26Z</time>
      </trkpt>
      <trkpt lat="45.30405" lon="-0.56259">
        <ele>37.5</ele>
        <time>2012-01-12T07:09:26Z</time>
      </trkpt>
      <trkpt lat="45.30331" lon="-0.56326">
        <ele>39.6</ele>
        <time>2012-01-12T07:09:26Z</time>
      </trkpt>
      <trkpt lat="45.3028" lon="-0.56339">
        <ele>41.7</ele>
        <time>2012-01-12T07:09:26Z</time>
      </trkpt>
      <trkpt lat="45.30215" lon="-0.56346">
        <ele>43.7</ele>
        <time>2012-01-12T07:09:26Z</time>
      </trkpt>
      <trkpt lat="45.30125" lon="-0.56321">
        <ele>37.1</ele>
        <time>2012-01-12T07:09:26Z</time>
      </trkpt>
      <trkpt lat="45.3005" lon="-0.56312">
        <ele>33.1</ele>
        <time>2012-01-12T07:09:26Z</time>
      </trkpt>
      <trkpt lat="45.29976" lon="-0.56344">
        <ele>33.1</ele>
        <time>2012-01-12T07:09:26Z</time>
      </trkpt>
      <trkpt lat="45.29924" lon="-0.56254">
        <ele>28.3</ele>
        <time>2012-01-12T07:09:26Z</time>
      </trkpt>
      <trkpt lat="45.29885" lon="-0.56226">
        <ele>27.1</ele>
        <time>2012-01-12T07:09:26Z</time>
      </trkpt>
      <trkpt lat="45.29836" lon="-0.56193">
        <ele>27.3</ele>
        <time>2012-01-12T07:09:26Z</time>
      </trkpt>
      <trkpt lat="45.29779" lon="-0.56134">
        <ele>28.8</ele>
        <time>2012-01-12T07:09:26Z</time>
      </trkpt>
      <trkpt lat="45.29749" lon="-0.5606">
        <ele>29.4</ele>
        <time>2012-01-12T07:09:26Z</time>
      </trkpt>
      <trkpt lat="45.29749" lon="-0.5606">
        <ele>29.4</ele>
        <time>2012-01-12T07:09:26Z</time>
      </trkpt>
      <trkpt lat="45.29667" lon="-0.56148">
        <ele>31.3</ele>
        <time>2012-01-12T07:09:26Z</time>
      </trkpt>
      <trkpt lat="45.29626" lon="-0.56182">
        <ele>32.9</ele>
        <time>2012-01-12T07:09:26Z</time>
      </trkpt>
      <trkpt lat="45.2954" lon="-0.56167">
        <ele>34.4</ele>
        <time>2012-01-12T07:09:26Z</time>
      </trkpt>
      <trkpt lat="45.29467" lon="-0.56179">
        <ele>32.9</ele>
        <time>2012-01-12T07:09:26Z</time>
      </trkpt>
      <trkpt lat="45.29419" lon="-0.56233">
        <ele>31.6</ele>
        <time>2012-01-12T07:09:26Z</time>
      </trkpt>
      <trkpt lat="45.2936" lon="-0.56255">
        <ele>31.5</ele>
        <time>2012-01-12T07:09:26Z</time>
      </trkpt>
      <trkpt lat="45.29337" lon="-0.56305">
        <ele>30.8</ele>
        <time>2012-01-12T07:09:26Z</time>
      </trkpt>
      <trkpt lat="45.29318" lon="-0.56355">
        <ele>30.2</ele>
        <time>2012-01-12T07:09:26Z</time>
      </trkpt>
      <trkpt lat="45.2928" lon="-0.5641">
        <ele>28.1</ele>
        <time>2012-01-12T07:09:26Z</time>
      </trkpt>
      <trkpt lat="45.29221" lon="-0.56458">
        <ele>24.3</ele>
        <time>2012-01-12T07:09:26Z</time>
      </trkpt>
      <trkpt lat="45.29179" lon="-0.56533">
        <ele>22.8</ele>
        <time>2012-01-12T07:09:26Z</time>
      </trkpt>
      <trkpt lat="45.29114" lon="-0.56539">
        <ele>21.9</ele>
        <time>2012-01-12T07:09:26Z</time>
      </trkpt>
      <trkpt lat="45.29062" lon="-0.56598">
        <ele>21.8</ele>
        <time>2012-01-12T07:09:26Z</time>
      </trkpt>
      <trkpt lat="45.29032" lon="-0.56627">
        <ele>21.9</ele>
        <time>2012-01-12T07:09:26Z</time>
      </trkpt>
      <trkpt lat="45.28975" lon="-0.56599">
        <ele>21.6</ele>
        <time>2012-01-12T07:09:26Z</time>
      </trkpt>
      <trkpt lat="45.28899" lon="-0.56595">
        <ele>21.5</ele>
        <time>2012-01-12T07:09:26Z</time>
      </trkpt>
      <trkpt lat="45.28853" lon="-0.56557">
        <ele>21.9</ele>
        <time>2012-01-12T07:09:26Z</time>
      </trkpt>
      <trkpt lat="45.28768" lon="-0.56475">
        <ele>23.5</ele>
        <time>2012-01-12T07:09:26Z</time>
      </trkpt>
      <trkpt lat="45.28713" lon="-0.56385">
        <ele>26.6</ele>
        <time>2012-01-12T07:09:26Z</time>
      </trkpt>
      <trkpt lat="45.28641" lon="-0.56356">
        <ele>27.4</ele>
        <time>2012-01-12T07:09:26Z</time>
      </trkpt>
      <trkpt lat="45.28592" lon="-0.56302">
        <ele>28.3</ele>
        <time>2012-01-12T07:09:26Z</time>
      </trkpt>
      <trkpt lat="45.28511" lon="-0.56211">
        <ele>31.6</ele>
        <time>2012-01-12T07:09:26Z</time>
      </trkpt>
      <trkpt lat="45.28511" lon="-0.56211">
        <ele>31.6</ele>
        <time>2012-01-12T07:09:26Z</time>
      </trkpt>
      <trkpt lat="45.28459" lon="-0.56259">
        <ele>30.5</ele>
        <time>2012-01-12T07:09:26Z</time>
      </trkpt>
      <trkpt lat="45.28406" lon="-0.56221">
        <ele>30.8</ele>
        <time>2012-01-12T07:09:26Z</time>
      </trkpt>
      <trkpt lat="45.2833" lon="-0.56222">
        <ele>28</ele>
        <time>2012-01-12T07:09:26Z</time>
      </trkpt>
      <trkpt lat="45.28255" lon="-0.56177">
        <ele>27.9</ele>
        <time>2012-01-12T07:09:26Z</time>
      </trkpt>
      <trkpt lat="45.28216" lon="-0.5617">
        <ele>28</ele>
        <time>2012-01-12T07:09:26Z</time>
      </trkpt>
      <trkpt lat="45.28166" lon="-0.56152">
        <ele>27.3</ele>
        <time>2012-01-12T07:09:26Z</time>
      </trkpt>
      <trkpt lat="45.28102" lon="-0.56107">
        <ele>26.9</ele>
        <time>2012-01-12T07:09:26Z</time>
      </trkpt>
      <trkpt lat="45.28023" lon="-0.56083">
        <ele>25.9</ele>
        <time>2012-01-12T07:09:26Z</time>
      </trkpt>
      <trkpt lat="45.27952" lon="-0.56028">
        <ele>27.7</ele>
        <time>2012-01-12T07:09:26Z</time>
      </trkpt>
      <trkpt lat="45.27884" lon="-0.55999">
        <ele>28.2</ele>
        <time>2012-01-12T07:09:26Z</time>
      </trkpt>
      <trkpt lat="45.27827" lon="-0.5595">
        <ele>29.7</ele>
        <time>2012-01-12T07:09:26Z</time>
      </trkpt>
      <trkpt lat="45.27767" lon="-0.55905">
        <ele>29.7</ele>
        <time>2012-01-12T07:09:26Z</time>
      </trkpt>
      <trkpt lat="45.27714" lon="-0.55857">
        <ele>29.5</ele>
        <time>2012-01-12T07:09:26Z</time>
      </trkpt>
      <trkpt lat="45.27648" lon="-0.55863">
        <ele>30.7</ele>
        <time>2012-01-12T07:09:26Z</time>
      </trkpt>
      <trkpt lat="45.27601" lon="-0.55871">
        <ele>30.5</ele>
        <time>2012-01-12T07:09:26Z</time>
      </trkpt>
      <trkpt lat="45.2755" lon="-0.55894">
        <ele>27.6</ele>
        <time>2012-01-12T07:09:26Z</time>
      </trkpt>
      <trkpt lat="45.27477" lon="-0.55906">
        <ele>21.9</ele>
        <time>2012-01-12T07:09:26Z</time>
      </trkpt>
      <trkpt lat="45.2738" lon="-0.55895">
        <ele>22</ele>
        <time>2012-01-12T07:09:26Z</time>
      </trkpt>
      <trkpt lat="45.27318" lon="-0.55897">
        <ele>22.1</ele>
        <time>2012-01-12T07:09:26Z</time>
      </trkpt>
      <trkpt lat="45.2721" lon="-0.55876">
        <ele>23</ele>
        <time>2012-01-12T07:09:26Z</time>
      </trkpt>
      <trkpt lat="45.27177" lon="-0.55926">
        <ele>21.2</ele>
        <time>2012-01-12T07:09:26Z</time>
      </trkpt>
      <trkpt lat="45.27177" lon="-0.55926">
        <ele>21.2</ele>
        <time>2012-01-12T07:09:26Z</time>
      </trkpt>
      <trkpt lat="45.27129" lon="-0.55934">
        <ele>20</ele>
        <time>2012-01-12T07:09:26Z</time>
      </trkpt>
      <trkpt lat="45.27091" lon="-0.5588">
        <ele>20.6</ele>
        <time>2012-01-12T07:09:26Z</time>
      </trkpt>
      <trkpt lat="45.27023" lon="-0.55851">
        <ele>18.9</ele>
        <time>2012-01-12T07:09:26Z</time>
      </trkpt>
      <trkpt lat="45.26984" lon="-0.55803">
        <ele>19.1</ele>
        <time>2012-01-12T07:09:26Z</time>
      </trkpt>
      <trkpt lat="45.26942" lon="-0.5576">
        <ele>19</ele>
        <time>2012-01-12T07:09:26Z</time>
      </trkpt>
      <trkpt lat="45.26904" lon="-0.55707">
        <ele>17.8</ele>
        <time>2012-01-12T07:09:26Z</time>
      </trkpt>
      <trkpt lat="45.26891" lon="-0.55655">
        <ele>18.2</ele>
        <time>2012-01-12T07:09:26Z</time>
      </trkpt>
      <trkpt lat="45.26848" lon="-0.55617">
        <ele>17.1</ele>
        <time>2012-01-12T07:09:26Z</time>
      </trkpt>
      <trkpt lat="45.26781" lon="-0.55552">
        <ele>18</ele>
        <time>2012-01-12T07:09:26Z</time>
      </trkpt>
      <trkpt lat="45.26717" lon="-0.55523">
        <ele>16.1</ele>
        <time>2012-01-12T07:09:26Z</time>
      </trkpt>
      <trkpt lat="45.26678" lon="-0.55495">
        <ele>15.5</ele>
        <time>2012-01-12T07:09:26Z</time>
      </trkpt>
      <trkpt lat="45.2662" lon="-0.55492">
        <ele>13.6</ele>
        <time>2012-01-12T07:09:26Z</time>
      </trkpt>
      <trkpt lat="45.2656" lon="-0.55422">
        <ele>12.4</ele>
        <time>2012-01-12T07:09:26Z</time>
      </trkpt>
      <trkpt lat="45.26519" lon="-0.55338">
        <ele>10.5</ele>
        <time>2012-01-12T07:09:26Z</time>
      </trkpt>
      <trkpt lat="45.26449" lon="-0.55253">
        <ele>9.8</ele>
        <time>2012-01-12T07:09:26Z</time>
      </trkpt>
      <trkpt lat="45.26409" lon="-0.55251">
        <ele>11</ele>
        <time>2012-01-12T07:09:26Z</time>
      </trkpt>
      <trkpt lat="45.26415" lon="-0.55164">
        <ele>10.8</ele>
        <time>2012-01-12T07:09:26Z</time>
      </trkpt>
      <trkpt lat="45.26415" lon="-0.55164">
        <ele>10.8</ele>
        <time>2012-01-12T07:09:26Z</time>
      </trkpt>
      <trkpt lat="45.26358" lon="-0.5513">
        <ele>10.5</ele>
        <time>2012-01-12T07:09:26Z</time>
      </trkpt>
      <trkpt lat="45.26283" lon="-0.55101">
        <ele>13</ele>
        <time>2012-01-12T07:09:26Z</time>
      </trkpt>
      <trkpt lat="45.26225" lon="-0.55087">
        <ele>16.1</ele>
        <time>2012-01-12T07:09:26Z</time>
      </trkpt>
      <trkpt lat="45.26159" lon="-0.55125">
        <ele>17.2</ele>
        <time>2012-01-12T07:09:26Z</time>
      </trkpt>
      <trkpt lat="45.26111" lon="-0.55168">
        <ele>18.5</ele>
        <time>2012-01-12T07:09:26Z</time>
      </trkpt>
      <trkpt lat="45.26065" lon="-0.55258">
        <ele>18.4</ele>
        <time>2012-01-12T07:09:26Z</time>
      </trkpt>
      <trkpt lat="45.26045" lon="-0.55334">
        <ele>15.9</ele>
        <time>2012-01-12T07:09:26Z</time>
      </trkpt>
      <trkpt lat="45.25982" lon="-0.55423">
        <ele>17.6</ele>
        <time>2012-01-12T07:09:26Z</time>
      </trkpt>
      <trkpt lat="45.25982" lon="-0.55423">
        <ele>17.6</ele>
        <time>2012-01-12T07:09:26Z</time>
      </trkpt>
      <trkpt lat="45.25907" lon="-0.55501">
        <ele>17.8</ele>
        <time>2012-01-12T07:09:26Z</time>
      </trkpt>
      <trkpt lat="45.25859" lon="-0.5556">
        <ele>15.6</ele>
        <time>2012-01-12T07:09:26Z</time>
      </trkpt>
      <trkpt lat="45.25791" lon="-0.55782">
        <ele>13</ele>
        <time>2012-01-12T07:09:26Z</time>
      </trkpt>
      <trkpt lat="45.25767" lon="-0.55868">
        <ele>13.7</ele>
        <time>2012-01-12T07:09:26Z</time>
      </trkpt>
      <trkpt lat="45.25723" lon="-0.55922">
        <ele>12.1</ele>
        <time>2012-01-12T07:09:26Z</time>
      </trkpt>
      <trkpt lat="45.25634" lon="-0.55994">
        <ele>12</ele>
        <time>2012-01-12T07:09:26Z</time>
      </trkpt>
      <trkpt lat="45.25606" lon="-0.56085">
        <ele>11.2</ele>
        <time>2012-01-12T07:09:26Z</time>
      </trkpt>
      <trkpt lat="45.25562" lon="-0.56103">
        <ele>11.6</ele>
        <time>2012-01-12T07:09:26Z</time>
      </trkpt>
      <trkpt lat="45.2552" lon="-0.56198">
        <ele>11.1</ele>
        <time>2012-01-12T07:09:26Z</time>
      </trkpt>
      <trkpt lat="45.25475" lon="-0.56252">
        <ele>11.5</ele>
        <time>2012-01-12T07:09:26Z</time>
      </trkpt>
      <trkpt lat="45.25408" lon="-0.56346">
        <ele>11.7</ele>
        <time>2012-01-12T07:09:26Z</time>
      </trkpt>
      <trkpt lat="45.25338" lon="-0.56378">
        <ele>11.6</ele>
        <time>2012-01-12T07:09:26Z</time>
      </trkpt>
      <trkpt lat="45.25307" lon="-0.56463">
        <ele>11.1</ele>
        <time>2012-01-12T07:09:26Z</time>
      </trkpt>
      <trkpt lat="45.25298" lon="-0.56519">
        <ele>10.2</ele>
        <time>2012-01-12T07:09:26Z</time>
      </trkpt>
      <trkpt lat="45.25298" lon="-0.56519">
        <ele>10.2</ele>
        <time>2012-01-12T07:09:26Z</time>
      </trkpt>
      <trkpt lat="45.25352" lon="-0.56553">
        <ele>9.2</ele>
        <time>2012-01-12T07:09:26Z</time>
      </trkpt>
      <trkpt lat="45.25352" lon="-0.56553">
        <ele>9.2</ele>
        <time>2012-01-12T07:09:26Z</time>
      </trkpt>
      <trkpt lat="45.25385" lon="-0.56641">
        <ele>8.5</ele>
        <time>2012-01-12T07:09:26Z</time>
      </trkpt>
      <trkpt lat="45.2542" lon="-0.56705">
        <ele>11</ele>
        <time>2012-01-12T07:09:26Z</time>
      </trkpt>
      <trkpt lat="45.25462" lon="-0.56748">
        <ele>13.1</ele>
        <time>2012-01-12T07:09:26Z</time>
      </trkpt>
      <trkpt lat="45.25425" lon="-0.56807">
        <ele>12.9</ele>
        <time>2012-01-12T07:09:26Z</time>
      </trkpt>
      <trkpt lat="45.25387" lon="-0.56846">
        <ele>12</ele>
        <time>2012-01-12T07:09:26Z</time>
      </trkpt>
      <trkpt lat="45.25335" lon="-0.56792">
        <ele>10.5</ele>
        <time>2012-01-12T07:09:26Z</time>
      </trkpt>
      <trkpt lat="45.25234" lon="-0.5689">
        <ele>10.7</ele>
        <time>2012-01-12T07:09:26Z</time>
      </trkpt>
      <trkpt lat="45.25179" lon="-0.56948">
        <ele>10.6</ele>
        <time>2012-01-12T07:09:26Z</time>
      </trkpt>
      <trkpt lat="45.25148" lon="-0.56998">
        <ele>10.4</ele>
        <time>2012-01-12T07:09:26Z</time>
      </trkpt>
      <trkpt lat="45.25107" lon="-0.57057">
        <ele>9.8</ele>
        <time>2012-01-12T07:09:26Z</time>
      </trkpt>
      <trkpt lat="45.25097" lon="-0.57068">
        <ele>10.3</ele>
      </trkpt>
      <trkpt lat="45.25088" lon="-0.5712">
        <ele>10.5</ele>
      </trkpt>
      <trkpt lat="45.25051" lon="-0.57202">
        <ele>10.4</ele>
      </trkpt>
      <trkpt lat="45.25037" lon="-0.5724">
        <ele>10.4</ele>
      </trkpt>
      <trkpt lat="45.25031" lon="-0.5729">
        <ele>11.2</ele>
      </trkpt>
      <trkpt lat="45.25034" lon="-0.57345">
        <ele>12.1</ele>
      </trkpt>
      <trkpt lat="45.25042" lon="-0.57406">
        <ele>12.4</ele>
      </trkpt>
      <trkpt lat="45.2504" lon="-0.5745">
        <ele>12.5</ele>
      </trkpt>
      <trkpt lat="45.25033" lon="-0.57464">
        <ele>12.4</ele>
      </trkpt>
      <trkpt lat="45.25051" lon="-0.5749">
        <ele>12.6</ele>
      </trkpt>
      <trkpt lat="45.25007" lon="-0.57596">
        <ele>12.5</ele>
      </trkpt>
      <trkpt lat="45.24959" lon="-0.57742">
        <ele>13.5</ele>
      </trkpt>
      <trkpt lat="45.24926" lon="-0.5786">
        <ele>14.4</ele>
      </trkpt>
      <trkpt lat="45.24921" lon="-0.57895">
        <ele>14.8</ele>
      </trkpt>
      <trkpt lat="45.24925" lon="-0.57933">
        <ele>15.6</ele>
      </trkpt>
      <trkpt lat="45.24979" lon="-0.58002">
        <ele>17.2</ele>
      </trkpt>
      <trkpt lat="45.2499" lon="-0.58011">
        <ele>17.1</ele>
      </trkpt>
      <trkpt lat="45.24993" lon="-0.58034">
        <ele>17</ele>
      </trkpt>
      <trkpt lat="45.24971" lon="-0.58073">
        <ele>16.7</ele>
      </trkpt>
      <trkpt lat="45.24964" lon="-0.58105">
        <ele>16.7</ele>
      </trkpt>
      <trkpt lat="45.24957" lon="-0.58174">
        <ele>17</ele>
      </trkpt>
      <trkpt lat="45.24953" lon="-0.58236">
        <ele>17</ele>
      </trkpt>
      <trkpt lat="45.24859" lon="-0.58566">
        <ele>19.1</ele>
      </trkpt>
      <trkpt lat="45.2485" lon="-0.58673">
        <ele>18.3</ele>
      </trkpt>
      <trkpt lat="45.24846" lon="-0.58691">
        <ele>18.1</ele>
      </trkpt>
      <trkpt lat="45.24863" lon="-0.58783">
        <ele>19.2</ele>
      </trkpt>
      <trkpt lat="45.24877" lon="-0.5885">
        <ele>21.3</ele>
      </trkpt>
      <trkpt lat="45.24869" lon="-0.58908">
        <ele>21.6</ele>
      </trkpt>
      <trkpt lat="45.24864" lon="-0.58978">
        <ele>21.9</ele>
      </trkpt>
      <trkpt lat="45.24869" lon="-0.59049">
        <ele>23.5</ele>
      </trkpt>
      <trkpt lat="45.24863" lon="-0.59094">
        <ele>24.5</ele>
      </trkpt>
      <trkpt lat="45.24854" lon="-0.59125">
        <ele>24.7</ele>
      </trkpt>
      <trkpt lat="45.24835" lon="-0.59167">
        <ele>25</ele>
      </trkpt>
      <trkpt lat="45.24821" lon="-0.59247">
        <ele>25.7</ele>
      </trkpt>
      <trkpt lat="45.24808" lon="-0.5934">
        <ele>26.1</ele>
      </trkpt>
      <trkpt lat="45.24789" lon="-0.59411">
        <ele>26.4</ele>
      </trkpt>
      <trkpt lat="45.24771" lon="-0.59469">
        <ele>25.8</ele>
      </trkpt>
      <trkpt lat="45.24769" lon="-0.59494">
        <ele>25.5</ele>
      </trkpt>
      <trkpt lat="45.24787" lon="-0.59605">
        <ele>25.3</ele>
      </trkpt>
      <trkpt lat="45.24768" lon="-0.59699">
        <ele>24.8</ele>
      </trkpt>
      <trkpt lat="45.24753" lon="-0.59793">
        <ele>24</ele>
      </trkpt>
      <trkpt lat="45.2475" lon="-0.59882">
        <ele>23</ele>
      </trkpt>
      <trkpt lat="45.247" lon="-0.60115">
        <ele>22.2</ele>
      </trkpt>
      <trkpt lat="45.24682" lon="-0.60237">
        <ele>22</ele>
      </trkpt>
      <trkpt lat="45.24656" lon="-0.60348">
        <ele>20.9</ele>
      </trkpt>
      <trkpt lat="45.24651" lon="-0.60394">
        <ele>21.2</ele>
      </trkpt>
      <trkpt lat="45.24604" lon="-0.60632">
        <ele>21.2</ele>
      </trkpt>
      <trkpt lat="45.24578" lon="-0.60736">
        <ele>20.3</ele>
      </trkpt>
      <trkpt lat="45.24567" lon="-0.60822">
        <ele>20.4</ele>
      </trkpt>
      <trkpt lat="45.24562" lon="-0.60866">
        <ele>20.6</ele>
      </trkpt>
      <trkpt lat="45.24554" lon="-0.60902">
        <ele>20.7</ele>
      </trkpt>
      <trkpt lat="45.24516" lon="-0.60962">
        <ele>20.9</ele>
      </trkpt>
      <trkpt lat="45.24497" lon="-0.60989">
        <ele>20.9</ele>
      </trkpt>
      <trkpt lat="45.24489" lon="-0.61013">
        <ele>21</ele>
      </trkpt>
      <trkpt lat="45.24484" lon="-0.61091">
        <ele>20.7</ele>
      </trkpt>
      <trkpt lat="45.24464" lon="-0.61149">
        <ele>19.8</ele>
      </trkpt>
      <trkpt lat="45.24446" lon="-0.61177">
        <ele>19.4</ele>
      </trkpt>
      <trkpt lat="45.24415" lon="-0.61215">
        <ele>19.5</ele>
      </trkpt>
      <trkpt lat="45.24403" lon="-0.61243">
        <ele>19.3</ele>
      </trkpt>
      <trkpt lat="45.24398" lon="-0.61245">
        <ele>19.1</ele>
      </trkpt>
      <trkpt lat="45.24394" lon="-0.61288">
        <ele>18.3</ele>
      </trkpt>
      <trkpt lat="45.24401" lon="-0.61341">
        <ele>17.4</ele>
      </trkpt>
      <trkpt lat="45.24478" lon="-0.61624">
        <ele>15.5</ele>
      </trkpt>
      <trkpt lat="45.24463" lon="-0.61642">
        <ele>15.3</ele>
      </trkpt>
      <trkpt lat="45.2444" lon="-0.61691">
        <ele>15.1</ele>
      </trkpt>
      <trkpt lat="45.24356" lon="-0.61846">
        <ele>15</ele>
      </trkpt>
      <trkpt lat="45.24336" lon="-0.61913">
        <ele>15</ele>
      </trkpt>
      <trkpt lat="45.24371" lon="-0.61947">
        <ele>14.6</ele>
      </trkpt>
      <trkpt lat="45.24385" lon="-0.61999">
        <ele>14.4</ele>
      </trkpt>
      <trkpt lat="45.24415" lon="-0.62201">
        <ele>12.6</ele>
      </trkpt>
      <trkpt lat="45.24465" lon="-0.62408">
        <ele>11</ele>
      </trkpt>
      <trkpt lat="45.24472" lon="-0.62443">
        <ele>10.7</ele>
      </trkpt>
      <trkpt lat="45.24451" lon="-0.62513">
        <ele>10</ele>
      </trkpt>
      <trkpt lat="45.24392" lon="-0.62696">
        <ele>8.9</ele>
      </trkpt>
      <trkpt lat="45.24425" lon="-0.62964">
        <ele>8.9</ele>
      </trkpt>
      <trkpt lat="45.24436" lon="-0.63029">
        <ele>8.9</ele>
      </trkpt>
      <trkpt lat="45.24547" lon="-0.63007">
        <ele>7.5</ele>
      </trkpt>
      <trkpt lat="45.24578" lon="-0.62994">
        <ele>6.9</ele>
      </trkpt>
    </trkseg>
  </trk>
</gpx>